This demonstration page uses our WeatherBlox Daily Observations layout. Learn more.

Left ArrowRight Arrow

Hourly Observations for July 30, 2017

Temp ( °F °C ) Dew Point ( °F °C ) Humidity (%) Winds ( mph kmh ) Pressure ( in mb ) Visibility ( mi km ) Precip ( " mm )
12:15 am 00:15 Cloudy with Light Rain 71 21.5 65 18.5 83 83 S 6 9 30.03 1017 10 16 0.00 0.00
12:35 am 00:35 Cloudy with Light Rain 70 21.2 65 18.2 83 83 S 10 17 30.03 1017 10 16 0.00 0.00
12:55 am 00:55 Cloudy with Light Rain 69 20.8 65 18.5 87 87 S 8 13 30.06 1018 10 16 0.02 0.51
1:15 am 01:15 Mostly Cloudy with Light Rain 69 20.7 65 18.5 87 87 SE 6 9 30.06 1018 10 16 0.02 0.51
1:35 am 01:35 Mostly Cloudy with Light Rain 69 20.7 66 18.7 88 88 ESE 6 9 30.03 1017 10 16 0.03 0.76
1:55 am 01:55 Mostly Cloudy with Light Rain 69 20.8 66 18.7 88 88 NE 7 11 30.06 1018 10 16 0.04 1.02
2:15 am 02:15 Mostly Cloudy with Drizzle 69 20.5 66 18.7 89 89 E 7 11 30.06 1018 10 16 0.00 0.00
2:35 am 02:35 Mostly Cloudy with Drizzle 69 20.4 65 18.5 89 89 ESE 8 13 30.06 1018 10 16 0.00 0.00
2:55 am 02:55 Partly Cloudy 69 20.6 65 18.3 87 87 SE 9 15 30.06 1018 10 16 0.00 0.00
3:15 am 03:15 Mostly Cloudy 69 20.5 65 18.5 88 88 SE 8 13 30.06 1018 10 16 0.00 0.00
3:35 am 03:35 Cloudy 69 20.5 66 18.7 89 89 S 9 15 30.06 1018 10 16 0.00 0.00
3:55 am 03:55 Partly Cloudy 68 20.1 65 18.2 89 89 SSE 6 9 30.06 1018 10 16 0.00 0.00
4:15 am 04:15 Mostly Cloudy 68 20.1 65 18.4 90 90 S 5 7 30.06 1018 10 16 0.00 0.00
4:35 am 04:35 Mostly Cloudy 68 20 65 18.4 91 91 Calm 30.09 1019 10 16 0.00 0.00
4:55 am 04:55 Mostly Cloudy 68 20 65 18.5 91 91 Calm 30.09 1019 10 16 0.00 0.00
5:15 am 05:15 Cloudy 68 20 65 18.5 91 91 Calm 30.09 1019 10 16 0.00 0.00
5:35 am 05:35 Cloudy 69 20.3 65 18.5 89 89 SE 5 7 30.09 1019 10 16 0.00 0.00
5:55 am 05:55 Cloudy 69 20.3 65 18.4 89 89 ESE 3 6 30.09 1019 10 16 0.00 0.00
6:15 am 06:15 Cloudy 68 20.1 65 18.2 89 89 ESE 3 6 30.09 1019 10 16 0.00 0.00
6:35 am 06:35 Cloudy 68 20.1 65 18.1 88 88 SE 3 6 30.09 1019 10 16 0.00 0.00
6:55 am 06:55 Cloudy 68 20.1 64 17.9 87 87 SE 5 7 30.09 1019 10 16 0.00 0.00
7:15 am 07:15 Cloudy 69 20.4 64 17.7 85 85 SE 5 7 30.09 1019 10 16 0.00 0.00
7:35 am 07:35 Cloudy 68 20.1 64 17.7 86 86 SSE 7 11 30.09 1019 10 16 0.00 0.00
7:55 am 07:55 Cloudy 69 20.5 64 17.5 83 83 SSE 7 11 30.09 1019 10 16 0.00 0.00
8:15 am 08:15 Cloudy 69 20.5 64 17.5 83 83 SSE 8 13 30.12 1020 10 16 0.00 0.00
8:35 am 08:35 Cloudy 69 20.5 63 17.3 82 82 SE 7 11 30.12 1020 10 16 0.00 0.00
8:55 am 08:55 Cloudy 70 20.9 63 17.4 80 80 SE 9 15 30.12 1020 10 16 0.00 0.00
9:15 am 09:15 Cloudy 70 21.2 63 17.2 78 78 SE 12 19 30.12 1020 10 16 0.00 0.00
9:35 am 09:35 Cloudy 70 21.3 63 17.2 78 78 SE 10 17 30.12 1020 10 16 0.00 0.00
9:55 am 09:55 Cloudy 71 21.6 63 17.1 76 76 SSE 12 19 30.12 1020 10 16 0.00 0.00
10:15 am 10:15 Cloudy 71 21.7 62 16.5 72 72 SSE 13 20 30.09 1019 10 16 0.00 0.00
10:35 am 10:35 Cloudy 72 22 61 16 69 69 SSE 13 20 30.09 1019 10 16 0.00 0.00
10:55 am 10:55 Cloudy 72 22.2 61 16.2 69 69 S 16 26 30.09 1019 10 16 0.00 0.00
11:15 am 11:15 Cloudy 72 22 62 16.4 71 71 SSE 13 20 30.09 1019 10 16 0.00 0.00
11:35 am 11:35 Cloudy 73 22.7 63 17 70 70 S 14 22 30.09 1019 10 16 0.00 0.00
11:55 am 11:55 Cloudy 74 23.5 63 17.2 68 68 SSE 13 20 30.09 1019 10 16 0.00 0.00
12:15 pm 12:15 Cloudy 74 23.1 62 16.9 68 68 S 16 26 30.09 1019 10 16 0.00 0.00
12:35 pm 12:35 Cloudy 75 23.7 63 17.4 68 68 S 14 22 30.09 1019 10 16 0.00 0.00
12:55 pm 12:55 Cloudy 76 24.2 64 17.6 67 67 S 16 26 30.09 1019 10 16 0.00 0.00
1:15 pm 13:15 Mostly Cloudy 76 24.5 64 17.8 66 66 S 13 20 30.09 1019 10 16 0.00 0.00
1:35 pm 13:35 Partly Cloudy 77 25.2 65 18.5 66 66 SSE 12 19 30.06 1018 10 16 0.00 0.00
1:55 pm 13:55 Sunny 76 24.7 65 18.1 67 67 SSE 16 26 30.09 1019 10 16 0.00 0.00
2:15 pm 14:15 Partly Cloudy 77 25.2 65 18.6 67 67 S 13 20 30.06 1018 10 16 0.00 0.00
2:35 pm 14:35 Mostly Cloudy 78 25.4 65 18.6 66 66 S 13 20 30.06 1018 10 16 0.00 0.00
2:55 pm 14:55 Mostly Cloudy 79 26.1 66 18.9 65 65 SSE 15 24 30.06 1018 10 16 0.00 0.00
3:15 pm 15:15 Mostly Cloudy 78 25.6 65 18.2 64 64 S 15 24 30.06 1018 10 16 0.00 0.00
3:35 pm 15:35 Mostly Cloudy 77 25.2 65 18.5 66 66 S 14 22 30.03 1017 10 16 0.00 0.00
3:55 pm 15:55 Cloudy 78 25.4 65 18.5 66 66 S 14 22 30.03 1017 10 16 0.00 0.00
4:15 pm 16:15 Cloudy 79 26 66 18.7 64 64 S 14 22 30.03 1017 10 16 0.00 0.00
4:35 pm 16:35 Mostly Cloudy 79 26 65 18.1 62 62 S 17 28 30.00 1016 10 16 0.00 0.00
4:55 pm 16:55 Mostly Cloudy 78 25.5 65 18.3 64 64 S 14 22 30.03 1017 10 16 0.00 0.00
5:15 pm 17:15 Mostly Cloudy 78 25.5 64 17.8 62 62 SSE 14 22 30.00 1016 10 16 0.00 0.00
5:35 pm 17:35 Partly Cloudy 78 25.5 64 17.9 63 63 S 13 20 30.00 1016 10 16 0.00 0.00
5:55 pm 17:55 Partly Cloudy 77 25.1 64 17.7 64 64 S 12 19 30.00 1016 10 16 0.00 0.00
6:15 pm 18:15 Partly Cloudy 77 25 64 17.9 65 65 SSE 14 22 30.00 1016 10 16 0.00 0.00
6:35 pm 18:35 Sunny 77 24.9 64 17.6 64 64 SSE 12 19 30.00 1016 10 16 0.00 0.00
6:55 pm 18:55 Sunny 76 24.5 63 17 63 63 SSE 12 19 30.03 1017 10 16 0.00 0.00
7:15 pm 19:15 Sunny 75 24.1 64 17.7 68 68 SSE 9 15 30.06 1018 10 16 0.00 0.00
7:35 pm 19:35 Partly Cloudy 74 23.2 64 17.6 71 71 SE 8 13 30.06 1018 10 16 0.00 0.00
7:55 pm 19:55 Sunny 73 22.7 63 17.4 72 72 SSE 9 15 30.06 1018 10 16 0.00 0.00
8:15 pm 20:15 Sunny 72 22.2 64 17.7 76 76 SSE 8 13 30.06 1018 10 16 0.00 0.00
8:35 pm 20:35 Sunny 72 22 63 17.2 74 74 SSE 7 11 30.06 1018 10 16 0.00 0.00
8:55 pm 20:55 Sunny 71 21.5 63 17 76 76 SE 5 7 30.06 1018 10 16 0.00 0.00
9:15 pm 21:15 Clear 71 21.6 62 16.5 73 73 SE 7 11 30.06 1018 10 16 0.00 0.00
9:35 pm 21:35 Clear 70 21.3 62 16.5 74 74 SE 6 9 30.09 1019 10 16 0.00 0.00
9:55 pm 21:55 Clear 70 21 62 16.7 77 77 SE 7 11 30.09 1019 10 16 0.00 0.00
10:15 pm 22:15 Clear 69 20.5 63 17.1 81 81 Calm 30.12 1020 10 16 0.00 0.00
10:35 pm 22:35 Clear 67 19.5 64 17.5 88 88 Calm 30.12 1020 10 16 0.00 0.00
10:55 pm 22:55 Clear 68 19.9 63 17.4 86 86 Calm 30.09 1019 10 16 0.00 0.00
11:15 pm 23:15 Clear 68 20 64 17.5 86 86 S 5 7 30.09 1019 10 16 0.00 0.00
11:35 pm 23:35 Clear 68 19.8 64 17.6 87 87 S 3 6 30.09 1019 10 16 0.00 0.00
11:55 pm 23:55 Clear 67 19.5 64 17.6 89 89 S 7 11 30.09 1019 10 16 0.00 0.00

Powered by AerisWeather